Location: Gull Harbor
(47.1000°N, 122.9000°W)
Time: 16:01:21
(UTC-07:00)

ISS - Pass Details

Date: 27 March 2019
Orbit: 408 x 410 km, 51.6° (Epoch: 19 April)

Event Time Altitude Azimuth Distance (km) Brightness Sun altitude
Rises 21:26:04 0° 279° (W) 2,338 1.4 -19.1°
Reaches altitude 10° 21:28:16 10° 288° (WNW) 1,476 0.2 -19.4°
Maximum altitude 21:31:21 36° 357° (N) 674 -2.5 -19.9°
Enters shadow 21:32:03 32° 26° (NNE) 737 -2.6 -20.0°
